Regional Weather Roundup
Issued by NWS Bismarck, ND

Home | Current Version | Previous Version | Text Only | Print | Product List | Glossary On
Versions: 1 2 3 4 5 6 7 8 9 10 11 12 13 14 15 16 17 18 19 20 21 22 23 24 25 26 27 28 29 30 31 32 33 34 35 36 37 38 39 40 41 42 43 44 45 46 47 48 49 50
000
ASUS43 KBIS 252110
RWRBIS

NWR BROADCAST TEXT
NATIONAL WEATHER SERVICE BISMARCK ND
300 PM CST TUE NOV 25 2014

NOTE: "FAIR" INDICATES FEW OR NO CLOUDS BELOW 12,000 FEET WITH NO
SIGNIFICANT WEATHER AND/OR OBSTRUCTIONS TO VISIBILITY.


CITY           SKY/WX    TMP DP  RH WIND       PRES   REMARKS
WILLISTON      FLURRIES  34  29  82 NW17      29.72R
MINOT          SNOW      27  24  89 NE16      29.73R VSB 1/4 WCI  15
MINOT AFB      MIX PCPN  25  25 100 E18       29.74R VSB 3/4 WCI  11
BISMARCK       LGT SNOW  32  31  96 S9        29.70F FOG
DICKINSON      CLOUDY    36  32  85 W18       29.66R
GARRISON         N/A     31  30  96 SE7       29.67S
HETTINGER ARPT CLOUDY    35  31  85 NW18G25   29.70S
JAMESTOWN      CLOUDY    32  22  66 SE14      29.79F
BEACH          CLOUDY    36  30  80 NW29G38   29.73R
CARRINGTON     MIX PCPN  28  27  93 E16G22    29.79S WCI  17
CROSBY         LGT SNOW  25  25 100 NE21      29.79R VSB 1   WCI  10
HARVEY         SNOW      27  27 100 E14       29.76S VSB 1/2 WCI  15
HAZEN          LGT SNOW  32  32 100 W3        29.68S
LINTON         LGT SNOW  32  32 100 S15       29.72F VSB 3/4
MANDAN         LGT SNOW  32  30  93 S9        29.69F
OAKES            N/A     32  27  80 SE13      29.84F
RUGBY          LGT SNOW  23  21  93 E17       29.80R VSB 3/4 WCI   9
STANLEY        LGT SNOW  28  28 100 NE13G20   29.68R VSB 3/4 WCI  18
TIOGA          MOCLDY    32  32 100 NE20      29.71R
$$

CITY           SKY/WX    TMP DP  RH WIND       PRES   REMARKS
GRAND FORKS    CLOUDY    22  15  75 E8        29.93S WCI  12
GRAND FORKS AF CLOUDY    20  15  81 NE8       29.93S WCI  11
DEVILS LAKE    CLOUDY    19  10  68 E14       29.83R WCI   6
FARGO          CLOUDY    27  18  69 SE12      29.91F WCI  17
CANDO          CLOUDY    19  18  93 E17       29.85R FOG     WCI   4
CAVALIER       MOCLDY    18  10  73 NE8       29.96S WCI   7
GRAFTON        CLOUDY    18  10  73 N7        29.95S WCI   8
GWINNER        CLEAR     32  25  74 SE10      29.86F
LANGDON        CLOUDY    16  12  86 E13       29.87S WCI   2
ROLLA          LGT SNOW  16  16 100 E12       29.86R WCI   3
WALHALLA         N/A     16  12  86 NE9       29.96S WCI   4
$$

CITY           SKY/WX    TMP DP  RH WIND       PRES   REMARKS
ABERDEEN       CLOUDY    32  25  75 SE13      29.84F
MOBRIDGE       LGT SNOW  33  31  92 S13       29.71F VSB 3/4
BUFFALO          N/A     38  31  76 NW32G40   29.67R
RAPID CITY     CLOUDY    38  30  73 NW21      29.77R
GLASGOW        CLOUDY    33  27  78 N21       29.85R
SIDNEY         MOSUNNY   37  27  65 W24G32    29.74R
WOLF POINT     CLOUDY    36  28  73 NW23G32   29.81R
GLENDIVE       CLOUDY    36  28  75 W25G35    29.77R
MILES CITY     PTSUNNY   39  26  59 NW23      29.83R
BAKER          CLOUDY    36  30  79 NW17G29   29.76R
$$

CITY           SKY/WX    TMP DP  RH WIND       PRES   REMARKS
BILLINGS       CLOUDY    34  28  79 N23G33    29.97R
GREAT FALLS    CLOUDY    34  24  67 NW6       30.06R
REGINA         CLOUDY    19  14  79 NE9       29.94R WCI   9
ESTEVAN        LGT SNOW  21  18  86 NE17G29   29.81R DRFTSNOWWCI   7
$$




USA.gov is the U.S. government's official web portal to all federal, state and local government web resources and services.